Location: Unspecified
(0.0000°N, 0.0000°E)
Time: 17:48:40
(UTC+00:00)

STARLINK 1063 - Pass Details

Date: 15 January 2020
Orbit: 548 x 551 km, 53.0° (Epoch: 17 January)

Event Time Altitude Azimuth Distance (km) Brightness Sun altitude
Rises 19:50:37 0° 307° (NW) 2,702 7.6 -23.5°
Reaches altitude 10° 19:53:04 10° 295° (WNW) 1,813 6.8 -24.1°
Maximum altitude 19:56:36 27° 236° (SW) 1,058 5.7 -24.9°
Drops below altitude 10° 20:00:09 10° 176° (S) 1,820 6.5 -25.7°
Sets 20:02:38 0° 164° (SSE) 2,716 7.3 -26.3°
